KC0VVH Weather Reports


time (UTC)temp
F
wind
direction
speed
knots
gust
knots
rain 1hr
in
rain 24hr
in
rain mn
in
humidity
%
barometer
mb
20260903121811 62 0 0.0 0.0 0.00 0.28 0.00 63 1016.5
20260903120933 64 0 0.0 0.0 0.00 0.28 0.00 59 1016.5
20260903120012 68 210 0.0 1.7 0.00 0.28 0.00 51 1016.5
20260903115412 68 210 0.0 4.3 0.00 0.28 0.00 43 1016.5
20260903114512 69 209 0.9 5.2 0.00 0.28 0.00 42 1016.5
20260903113612 69 213 1.7 7.0 0.00 0.28 0.00 43 1016.5
20260903112712 69 193 0.9 6.1 0.00 0.28 0.00 43 1016.5
20260903111833 69 213 0.9 5.2 0.00 0.28 0.00 44 1016.5
20260903110911 69 196 0.9 4.3 0.00 0.28 0.00 44 1016.5
20260903110033 69 190 0.9 4.3 0.00 0.28 0.00 44 1016.5
20260903105411 69 189 0.9 4.3 0.00 0.28 0.00 44 1016.5
20260903104512 70 180 1.7 8.7 0.00 0.28 0.00 44 1016.5
20260903103612 70 197 0.0 4.3 0.00 0.28 0.00 44 1016.5
20260903102712 70 201 1.7 7.0 0.00 0.28 0.00 43 1016.5
20260903101811 70 202 1.7 6.1 0.00 0.28 0.00 44 1016.5
20260903100911 71 198 2.6 7.0 0.00 0.28 0.00 44 1016.5
20260903100033 71 183 3.5 11.3 0.00 0.28 0.00 43 1016.5
20260903095412 71 189 1.7 11.3 0.00 0.28 0.00 43 1016.5
20260903094512 70 222 1.7 6.1 0.00 0.28 0.00 44 1016.5
20260903093611 70 228 0.0 3.5 0.00 0.28 0.00 44 1016.5
20260903092711 71 201 0.9 5.2 0.00 0.28 0.00 45 1016.5
20260903091833 71 191 0.9 5.2 0.00 0.28 0.00 44 1016.5
20260903090912 72 208 1.7 7.0 0.00 0.28 0.00 43 1016.5
20260903090011 72 196 2.6 7.0 0.00 0.28 0.00 44 1016.5
20260903085433 72 194 0.9 6.1 0.00 0.28 0.00 44 1016.5
20260903084512 72 193 2.6 7.8 0.00 0.28 0.00 44 1016.5
20260903083612 72 192 1.7 9.6 0.00 0.28 0.00 44 1016.5
20260903082733 72 217 1.7 7.8 0.00 0.28 0.00 45 1016.5
20260903081812 72 202 2.6 6.1 0.00 0.28 0.00 45 1016.5
20260903080912 72 194 2.6 7.8 0.00 0.28 0.00 45 1016.5
20260903080012 72 194 0.0 3.5 0.00 0.28 0.00 45 1016.5
20260903075412 73 198 1.7 12.2 0.00 0.28 0.00 44 1016.5
20260903074512 72 199 2.6 12.2 0.00 0.28 0.00 45 1016.5
20260903073611 72 199 1.7 5.2 0.00 0.28 0.00 45 1016.5
20260903072712 73 201 2.6 6.1 0.00 0.28 0.00 45 1016.5
20260903071812 73 196 1.7 6.1 0.00 0.28 0.00 45 1016.5
20260903070912 73 203 0.9 7.0 0.00 0.28 0.00 45 1016.5
20260903070012 73 209 0.9 7.0 0.00 0.28 0.00 45 1016.5
20260903065411 73 199 1.7 7.0 0.00 0.28 0.00 45 1016.5
20260903064512 73 198 3.5 7.8 0.00 0.28 0.00 44 1016.5
20260903063612 74 199 4.3 13.9 0.00 0.28 0.00 44 1016.5
20260903062712 74 199 4.3 9.6 0.00 0.28 0.00 45 1016.5
20260903061812 74 198 4.3 7.8 0.00 0.28 0.00 45 1016.5
20260903060932 74 195 3.5 7.8 0.00 0.28 0.00 44 1016.5
20260903060033 74 195 1.7 7.8 0.00 0.28 0.00 44 1016.5
20260903055412 74 200 1.7 7.0 0.00 0.28 0.28 43 1016.5
20260903054512 74 201 3.5 7.8 0.00 0.28 0.28 44 1016.5
20260903053612 74 201 4.3 7.8 0.00 0.28 0.28 44 1016.5
20260903052712 74 193 1.7 7.8 0.00 0.28 0.28 44 1016.5
20260903051812 74 182 2.6 8.7 0.00 0.28 0.28 44 1016.5
20260903050912 74 185 1.7 8.7 0.00 0.28 0.28 45 1016.5
20260903050012 74 188 1.7 7.8 0.00 0.28 0.28 45 1016.5
20260903045411 74 189 1.7 7.8 0.00 0.28 0.28 44 1016.5
20260903044533 74 189 1.7 7.0 0.00 0.28 0.28 45 1016.5
20260903043612 74 197 2.6 7.0 0.00 0.28 0.28 43 1016.5
20260903042712 74 201 1.7 7.8 0.00 0.28 0.28 44 1016.5
20260903041812 74 188 3.5 13.9 0.00 0.28 0.28 44 1016.5
20260903040911 74 184 2.6 9.6 0.00 0.28 0.28 44 1016.5
20260903040012 74 190 1.7 10.4 0.00 0.28 0.28 44 1016.5
20260903035412 74 193 1.7 8.7 0.00 0.28 0.28 45 1016.5
20260903034532 74 193 4.3 9.6 0.00 0.28 0.28 45 1016.5
20260903033612 74 181 3.5 10.4 0.00 0.28 0.28 45 1016.5
20260903032733 74 185 4.3 9.6 0.00 0.28 0.28 45 1016.5
20260903031812 74 211 1.7 9.6 0.00 0.28 0.28 46 1016.5
20260903030912 74 212 2.6 7.0 0.00 0.28 0.28 46 1016.5
20260903030012 74 202 4.3 11.3 0.00 0.28 0.28 47 1016.5
20260903025412 74 188 4.3 10.4 0.00 0.28 0.28 46 1016.5
20260903024512 74 185 6.1 13.0 0.00 0.28 0.28 47 1016.5
20260903023612 74 184 5.2 10.4 0.03 0.28 0.28 48 1016.5
20260903022711 72 181 5.2 10.4 0.03 0.28 0.28 50 1016.5
20260903021812 71 197 1.7 7.0 0.03 0.28 0.28 59 1016.5
20260903020912 71 206 3.5 9.6 0.03 0.28 0.28 62 1016.5
20260903020012 71 206 3.5 8.7 0.03 0.28 0.28 66 1016.5
20260903015412 73 189 2.6 7.8 0.03 0.28 0.28 66 1016.5
20260903014512 76 0 0.0 0.0 0.03 0.28 0.28 62 1016.5
20260903013612 77 0 0.0 0.0 0.00 0.25 0.25 48 1016.5
20260903012712 78 0 0.0 0.9 0.00 0.25 0.25 42 1016.5
20260903011811 78 0 0.0 0.0 0.00 0.25 0.25 46 1016.5
20260903010912 78 0 0.0 0.0 0.00 0.25 0.25 45 1016.5
20260903010012 78 0 0.0 0.0 0.00 0.25 0.25 44 1016.5
20260903005412 78 0 0.0 0.0 0.00 0.25 0.25 42 1016.5
20260903004533 78 0 0.0 0.0 0.00 0.25 0.25 43 1016.5
20260903003612 79 184 0.0 4.3 0.00 0.25 0.25 44 1016.5
20260903002712 80 163 0.9 4.3 0.00 0.25 0.25 42 1016.5
20260903001833 81 104 0.9 4.3 0.00 0.25 0.25 39 1016.5
20260903000912 81 0 0.0 0.0 0.00 0.25 0.25 38 1016.5
20260903000012 82 0 0.0 0.0 0.00 0.25 0.25 37 1016.5
20260902235412 81 0 0.0 0.0 0.00 0.25 0.25 39 1016.5
20260902234512 80 0 0.0 0.0 0.00 0.25 0.25 41 1016.5
20260902233612 80 0 0.0 0.0 0.00 0.25 0.25 41 1016.5
20260902232712 80 64 0.0 3.5 0.00 0.25 0.25 41 1016.5
20260902231812 80 0 0.0 0.9 0.00 0.25 0.25 42 1016.5
20260902230933 79 63 0.0 3.5 0.00 0.25 0.25 42 1016.5
20260902230012 79 63 0.0 3.5 0.00 0.25 0.25 42 1016.5
20260902225412 80 0 0.0 0.0 0.00 0.26 0.25 42 1016.5
20260902224512 79 63 0.9 5.2 0.00 0.26 0.25 41 1016.5
20260902223633 80 63 0.0 4.3 0.00 0.26 0.25 42 1016.5
20260902222712 80 0 0.0 0.9 0.00 0.26 0.25 41 1016.5
20260902221812 79 63 0.0 2.6 0.00 0.26 0.25 41 1016.5
20260902220912 78 63 0.0 3.5 0.00 0.26 0.25 42 1016.5
20260902220012 78 65 0.9 5.2 0.00 0.26 0.25 44 1016.5
20260902215412 77 66 0.9 5.2 0.00 0.27 0.25 45 1016.5
20260902214533 76 67 2.6 9.6 0.00 0.30 0.25 45 1016.5
20260902213612 76 63 2.6 10.4 0.00 0.39 0.25 46 1016.5
20260902212712 76 61 1.7 6.1 0.00 0.57 0.25 50 1016.5
20260902211833 76 58 2.6 10.4 0.00 0.73 0.25 53 1016.5
20260902210933 75 52 0.9 6.1 0.00 0.73 0.25 49 1016.5
20260902210033 75 252 0.0 2.6 0.00 0.73 0.25 48 1016.5
20260902205412 74 248 1.7 6.1 0.00 0.73 0.25 51 1016.5
20260902204533 73 206 1.7 6.1 0.00 0.73 0.25 56 1016.5
20260902203612 71 192 0.9 5.2 0.00 0.73 0.25 58 1016.5
20260902202733 71 191 0.9 3.5 0.00 0.73 0.25 59 1016.5
20260902201812 70 0 0.0 0.0 0.00 0.73 0.25 62 1016.5
20260902200912 70 191 0.0 1.7 0.00 0.73 0.25 63 1016.5
20260902200012 69 0 0.0 0.0 0.00 0.73 0.25 69 1016.5
20260902195412 68 0 0.0 0.0 0.00 0.73 0.25 75 1016.5
20260902194512 67 198 0.0 2.6 0.07 0.73 0.25 74 1016.5
20260902193612 67 0 0.0 0.0 0.20 0.73 0.25 77 1016.5
20260902192712 66 0 0.0 0.0 0.20 0.73 0.25 73 1016.5
20260902191812 66 0 0.0 0.0 0.20 0.73 0.25 73 1016.5
20260902190933 66 0 0.0 0.0 0.21 0.73 0.25 72 1016.5
20260902190033 66 0 0.0 0.9 0.21 0.73 0.25 73 1016.5
20260902185412 66 326 0.0 6.1 0.21 0.73 0.25 71 1016.5
20260902184512 70 326 3.5 15.6 0.14 0.66 0.20 63 1016.5
20260902183633 72 352 2.6 9.6 0.01 0.53 0.05 56 1016.5
20260902182712 71 347 2.6 9.6 0.02 0.53 0.05 59 1016.5
20260902181833 70 316 0.9 7.8 0.05 0.53 0.05 64 1016.5
20260902180912 71 335 1.7 7.0 0.04 0.52 0.04 59 1016.5
20260902180012 71 357 2.6 8.7 0.04 0.52 0.04 59 1016.5
20260902175412 71 347 2.6 8.7 0.04 0.52 0.04 63 1016.5
20260902174512 70 356 1.7 8.7 0.04 0.52 0.04 68 1016.5
20260902173612 71 339 0.9 7.8 0.04 0.52 0.04 64 1016.5
20260902172712 73 258 2.6 11.3 0.03 0.51 0.03 57 1016.5
20260902171812 76 311 2.6 7.8 0.00 0.48 0.00 51 1016.5
20260902170912 78 22 1.7 5.2 0.00 0.48 0.00 49 1016.5
20260902170012 78 8 2.6 5.2 0.00 0.48 0.00 44 1016.5
20260902165412 79 15 2.6 6.1 0.00 0.48 0.00 45 1016.5
20260902164512 80 48 2.6 9.6 0.00 0.48 0.00 45 1016.5
20260902163612 79 68 2.6 9.6 0.00 0.48 0.00 41 1016.5
20260902162712 79 337 0.0 3.5 0.00 0.48 0.00 41 1016.5
20260902161812 78 82 0.9 4.3 0.00 0.48 0.00 44 1016.5
20260902160912 76 82 2.6 6.1 0.00 0.48 0.00 44 1016.5
20260902160012 75 81 0.9 4.3 0.00 0.48 0.00 47 1016.5
20260902155412 74 66 1.7 4.3 0.00 0.48 0.00 49 1016.5
20260902154512 74 62 3.5 7.0 0.00 0.48 0.00 50 1016.5
20260902153612 73 65 3.5 7.0 0.00 0.48 0.00 51 1016.5
20260902152712 73 47 1.7 7.0 0.00 0.48 0.00 50 1016.5
20260902151812 72 45 1.7 5.2 0.00 0.48 0.00 53 1016.5
20260902150912 71 40 1.7 8.7 0.00 0.48 0.00 52 1016.5
20260902150012 69 223 1.7 5.2 0.00 0.48 0.00 53 1016.5
20260902145412 69 222 2.6 6.1 0.00 0.48 0.00 54 1016.5
20260902144512 68 217 1.7 6.1 0.00 0.48 0.00 54 1016.5
20260902143612 67 217 0.9 7.0 0.00 0.48 0.00 55 1016.5
20260902142712 66 179 1.7 7.0 0.00 0.48 0.00 55 1016.5
20260902141812 66 215 0.0 2.6 0.00 0.48 0.00 56 1016.5
20260902140912 65 215 0.0 1.7 0.00 0.48 0.00 56 1016.5
20260902140012 65 215 0.0 2.6 0.00 0.48 0.00 55 1016.5
20260902135412 65 215 0.9 4.3 0.00 0.48 0.00 55 1016.5
20260902134512 65 164 0.9 5.2 0.00 0.48 0.00 56 1016.5
20260902133612 64 106 0.9 5.2 0.00 0.48 0.00 57 1016.5
20260902132712 63 171 0.9 5.2 0.00 0.48 0.00 58 1016.5
20260902131812 61 144 0.9 4.3 0.00 0.48 0.00 61 1016.5
20260902130912 59 149 0.0 0.9 0.00 0.48 0.00 65 1016.5
20260902130012 58 0 0.0 0.0 0.00 0.48 0.00 72 1016.5
20260902125412 58 0 0.0 0.0 0.00 0.48 0.00 72 1016.5
20260902124512 59 0 0.0 0.0 0.00 0.48 0.00 70 1016.5
20260902123612 59 0 0.0 0.0 0.00 0.48 0.00 69 1016.5
20260902122712 60 0 0.0 0.0 0.00 0.48 0.00 68 1016.5